Location: DARK SKY Beskydy - Park tmavé oblohy, www.darkskybeskydy.cz
(49.4926°N, 18.5016°E)
Time: 23:25:00
(UTC+02:00)

ACS3 Solar Sail - Pass Details

Date: 24 June 2024
Orbit: 992 x 1023 km, 97.4° (Epoch: 12 July)

Event Time Altitude Azimuth Distance (km) Brightness Sun altitude
Exits shadow 22:39:54 - 185° (S) 2,925 6.8 -11.7°
Reaches altitude 10° 22:40:21 10° 187° (S) 2,758 6.7 -11.7°
Maximum altitude 22:46:24 52° 263° (W) 1,220 5.5 -12.2°
Drops below altitude 10° 22:52:28 10° 339° (NNW) 2,767 8.7 -12.7°
Sets 22:55:02 0° 345° (NNW) 3,720 9.7 -12.9°
